一网星座-0551星 (ONEWEB-0551)

导读 | 豆包AI

ONEWEB-0551是英国OneWeb星座网络中的一颗低轨卫星,于2023年3月26日发射升空,属于OneWeb第二代卫星组网任务的一部分。该卫星运行在距地面约1200公里的近地极轨轨道,质量约175-200kg,工作在Ku波段,依托渐进调姿技术避免与同步轨道卫星信号干扰。作为OneWeb全球卫星互联网组网的组成部分,它为全球范围内高速低延迟宽带互联网接入提供支撑,助力弥合全球数字鸿沟。

Basic Information
目录编号:
56053
目录名称:
ONEWEB-0551
国际标识:
2023-043H
轨道中心:
EARTH
卫星名称:
一网星座-0551星
卫星全名:
一网星座-0551星 (ONEWEB-0551)
卫星状态:
在轨 (已飞行1084 天)
发射日期:
2023-03-26 UTC
国别 :
英国 (GB)
星等 :
--
Orbit Information
数据来源 国际轨道数据 AOE轨道数据
星历时间 2026-03-14T06:21:18+0800
9小时前
查看轨道信息
2026-03-13T10:00:00+0800
1天前
查看轨道信息
半长轴 7579.91km 7579.93km
偏心率 0.000193 0.000246
轨道倾角 87.893° 87.896°
近地点辐角 92.413° 88.527°
升交点赤经 278.247° 278.416°
平近点角 267.722° 217.166°
近地点 1200.31km 1199.928km
远地点 1203.236km 1203.658km
周期 109.460分钟 109.461分钟
每日圈数 13.15548 13.15543
Detailed Information
平衡模式:
三轴稳定
覆盖范围:
全球
运营商:
一网卫星公司
运营商所在国:
英国
制造商(研发单位):
一网卫星公司
制造商所在国:
英国
使用方式:
暂无
Satellite Introduction
OneWeb卫星网络由648颗重约125公斤的微型卫星组成,运行在1200公里的轨道上。 每颗卫星都能够提供至少每秒8千兆位的吞吐量,以使用其高吞吐量的Ku频段有效载荷为家庭和移动平台提供互联网接入。该卫星仍在工作。
2D Orbit Map
3D Orbit Map
Orbit Altitude Analysis Chart
Orbit Inclination Analysis Chart
Orbit Comprehensive Analysis Chart
View Comprehensive Chart